This demonstration page uses our WeatherBlox Daily Observations layout. Learn more.

Left ArrowRight Arrow

Hourly Observations for February 9, 2016

Temp ( °F °C ) Dew Point ( °F °C ) Humidity (%) Winds ( mph kmh ) Pressure ( in mb ) Visibility ( mi km ) Precip ( " mm )
12:58 am 00:58 Clear 24 -4.2 10 -12 55 55 NW 12 19 30.13 1020 10 16 0.00 0.00
1:58 am 01:58 Clear 23 -5.1 11 -11.8 60 60 NNW 16 26 30.13 1020 10 16 0.00 0.00
2:58 am 02:58 Clear 21 -5.9 9 -12.7 59 59 NNW 16 26 30.14 1021 10 16 0.00 0.00
3:58 am 03:58 Clear 19 -7.5 10 -12.4 68 68 N 14 22 30.18 1022 10 16 0.00 0.00
4:58 am 04:58 Clear 16 -9 9 -13 73 73 N 14 22 30.20 1023 10 16 0.00 0.00
5:58 am 05:58 Clear 15 -9.3 7 -14 69 69 NNW 16 26 30.22 1023 10 16 0.00 0.00
6:58 am 06:58 Clear 14 -10 7 -14 73 73 NNW 15 24 30.24 1024 10 16 0.00 0.00
7:58 am 07:58 Sunny 15 -9.7 5 -15 66 66 NNW 17 28 30.26 1025 10 16 0.00 0.00
8:58 am 08:58 Sunny 16 -9.1 4 -15.6 60 60 NNW 22 35 30.27 1025 10 16 0.00 0.00
9:58 am 09:58 Mostly Sunny 17 -8.3 4 -15.5 56 56 NNW 22 35 30.28 1025 10 16 0.00 0.00
10:58 am 10:58 Mostly Sunny 18 -7.8 4 -15.4 55 55 NNW 16 26 30.31 1026 10 16 0.00 0.00
11:58 am 11:58 Mostly Sunny 19 -7 4 -15.5 51 51 NNW 15 24 30.33 1027 10 16 0.00 0.00
12:58 pm 12:58 Sunny 22 -5.6 5 -15.1 48 48 NW 16 26 30.32 1027 10 16 0.00 0.00
1:58 pm 13:58 Sunny 23 -5.1 4 -15.3 45 45 NW 13 20 30.29 1026 10 16 0.00 0.00
2:58 pm 14:58 Sunny 24 -4.3 8 -13.4 49 49 WNW 13 20 30.29 1026 10 16 0.00 0.00
3:58 pm 15:58 Sunny 24 -4.5 7 -13.7 49 49 NW 16 26 30.31 1027 10 16 0.00 0.00
4:58 pm 16:58 Sunny 24 -4.5 9 -12.8 53 53 NW 16 26 30.32 1027 10 16 0.00 0.00
5:58 pm 17:58 Clear 22 -5.6 12 -11.2 65 65 NW 9 15 30.32 1027 10 16 0.00 0.00
6:58 pm 18:58 Mostly Cloudy 21 -6 13 -10.4 71 71 WNW 8 13 30.33 1027 10 16 0.00 0.00
7:58 pm 19:58 Cloudy 23 -5.2 14 -10 69 69 WNW 9 15 30.32 1027 10 16 0.00 0.00
8:58 pm 20:58 Cloudy 23 -5.1 14 -10 69 69 W 7 11 30.33 1027 10 16 0.00 0.00
9:58 pm 21:58 Mostly Clear 21 -6.3 13 -10.3 74 74 W 2 4 30.33 1027 10 16 0.00 0.00
10:58 pm 22:58 Clear 18 -7.6 14 -9.8 84 84 Calm 30.30 1026 10 16 0.00 0.00
11:58 pm 23:58 Mostly Cloudy 19 -7.1 14 -9.9 81 81 S 2 4 30.27 1025 10 16 0.00 0.00

Powered by AerisWeather